Tracking 19293 objects as of 21-Nov-2018
HD Live streaming from Space Station
objects crossing your sky now

COSMOS 1066

Track COSMOS 1066 now!
10-day predictions
COSMOS 1066 is classified as:


NORAD ID: 11165
Int'l Code: 1978-121A
Perigee: 824.9 km
Apogee: 897.1 km
Inclination: 81.2 °
Period: 102.0 minutes
Semi major axis: 7232 km
RCS: 4.6495 m2 (large)
Launch date: December 23, 1978
Source: Commonwealth of Independent States (former USSR) (CIS)
Launch site: PLESETSK MISSILE AND SPACE COMPLEX (PKMTR)
aabbcc
Your satellite tracking list
Your tracking list is empty




NASA's NSSDC Master Catalog

Two Line Element Set (TLE):
1 11165U 78121A   18323.87085435  .00000081  00000-0  37147-4 0  9995
2 11165  81.2384  78.1216 0049930  26.8588 333.5152 14.11601788571281
Source of the keplerian elements: AFSPC